Current weather by "City, St" or "zip code"  
 

Current Conditions: Randolph Air Force Base, TX

Fair


56.0 F

Last Updated on Oct 29 2020, 7:56 pm CDT
Humidity: 57%
Wind Speed: N 6.9 mph
Barometer 30.18 in
Dewpoint: 41.4 F
Visibility: 10.00 mi
Precip: --
Heat Index: NA
Wind Chill: 54 F
Current conditions at:

Randolph Air Force Base, TX (KRND)

Lat: 29.53333 Lon: 98.28333

Local Radar Image active severe weather and emergency alerts image image weather storm and storm spotter reports image weather observation monitoring service image
Local
Radar
Active
Alerts
Storm Reports Obs
Monitoring

Sign-up For Email & Text Message Weather Alert Notification Services



Advertise Here

Observation History for Randolph Air Force Base, TX


Time Wind
(mph)
Vis
(mi)
Weather Precip (in) Temperature (F) Relative
Humidity
Wind
Chill
(F)
Heat
Index
(F)
Pressure
Air Dwpt altimeter
(in)
sea level
(mb)
Rmks
7:56 pm CDT N 6.9 10.00 Fair -- 56.0 41.4 57% 54 NA 30.18 1022.0
6:56 pm CDT N 8.1 10.00 Fair -- 60.0 40.5 49% 59 NA 30.16 1021.3
5:56 pm CDT NW 12.7 10.00 Fair -- 63.0 40.1 43% 62 NA 30.14 1020.5
4:56 pm CDT N 17.3 G 25.3 10.00 Fair -- 65.0 39.4 39% NA NA 30.13 1020.1
3:56 pm CDT NW 20.7 10.00 Fair and Breezy -- 65.0 38.5 37% NA NA 30.12 1019.7
2:56 pm CDT NW 18.4 10.00 Fair -- 66.0 38.8 37% NA NA 30.10 1019.1
1:56 pm CDT NW 20.7 G 26.5 10.00 Fair and Breezy -- 65.0 38.5 38% NA NA 30.11 1019.5
12:56 pm CDT NW 20.7 G 25.3 10.00 Fair and Breezy -- 63.0 38.5 40% 61 NA 30.13 1020.2
11:56 am CDT NW 20.7 G 27.6 10.00 Fair and Breezy -- 62.0 38.5 41% 59 NA 30.13 1020.1
10:56 am CDT NW 18.4 10.00 Fair -- 60.0 38.1 44% 57 NA 30.11 1019.5
9:56 am CDT NW 23.0 G 28.8 10.00 Fair and Breezy -- 57.0 37.4 48% 52 NA 30.09 1018.9
8:56 am CDT W 20.7 G 27.6 10.00 Fair and Breezy -- 54.0 37.8 54% 49 NA 30.05 1017.5
7:56 am CDT W 10.4 10.00 Fair -- 47.0 36.0 65% 42 NA 30.03 1016.9
6:56 am CDT SW 8.1 10.00 Fair -- 46.0 35.2 66% 42 NA 30.01 1016.2
5:56 am CDT SW 6.9 10.00 Fair -- 47.0 35.2 64% 44 NA 29.99 1015.4
3:56 am CDT SW 8.1 10.00 Fair -- 51.0 34.2 53% 48 NA 29.99 1015.4
2:56 am CDT SW 6.9 10.00 Fair -- 50.0 34.9 56% 47 NA 29.99 1015.4
12:56 am CDT SW 5.8 10.00 Fair -- 50.0 37.2 62% 48 NA 29.98 1015.1
11:56 pm CDT S 4.6 10.00 Fair -- 51.0 36.7 58% 50 NA 29.97 1014.9
10:56 pm CDT W 4.6 10.00 Fair -- 51.0 36.5 57% 50 NA 29.96 1014.6
9:56 pm CDT W 8.1 10.00 Fair -- 48.0 37.2 65% 44 NA 29.96 1014.7
8:56 pm CDT NW 4.6 10.00 Fair -- 54.0 35.6 50% 53 NA 29.92 1013.3

Regional Weather Observation


New Braunfels Regional Airport, TX (KBAZ)

Fair
56.0 F

Randolph Air Force Base, TX (KRND)

Fair
56.0 F

San Antonio - Kelly Field, TX (KSKF)

Fair
59.0 F

San Antonio, Stinson Municipal Airport, TX (KSSF)

Fair
59.0 F

Castroville Municipal Airport, TX (KCVB)

Fair
60.0 F

Fredericksburg, Gillespie County Airport, TX (KT82)

Fair
52.0 F